This is the latest recevied weather packets stored in our database for station/object AB1AU. If no packets are shown the sender has not sent any weather packets the latest 10 day(s).
| Time | Temp. | Humidity | Pressure | Rain* | Wind** | Luminosity | Snow |
|---|---|---|---|---|---|---|---|
| 1787840967 | 22.22° C | 78% | 1019.1 hPa | 0 mm | - | 91 W/m² | - |
| 1787840663 | 22.22° C | 79% | 1019.1 hPa | 0 mm | - | 82 W/m² | - |
| 1787840358 | 22.22° C | 79% | 1019.3 hPa | 0 mm | - | 70 W/m² | - |
| 1787840053 | 22.22° C | 79% | 1019.2 hPa | 0 mm | - | 49 W/m² | - |
| 1787839749 | 21.67° C | 80% | 1019.4 hPa | 0 mm | - | 54 W/m² | - |
| 1787839443 | 21.67° C | 81% | 1019.3 hPa | 0 mm | - | 88 W/m² | - |
| 1787839142 | 21.67° C | 80% | 1019.4 hPa | 0 mm | - | 51 W/m² | - |
| 1787838842 | 21.67° C | 80% | 1019.4 hPa | 0 mm | - | 80 W/m² | - |
| 1787838542 | 21.67° C | 79% | 1019.2 hPa | 0 mm | - | 84 W/m² | - |
| 1787838241 | 22.22° C | 78% | 1019.4 hPa | 0 mm | - | 85 W/m² | - |
| 1787837940 | 22.22° C | 79% | 1019.2 hPa | 0 mm | - | 75 W/m² | - |
| 1787837639 | 21.67° C | 81% | 1019.1 hPa | 0 mm | - | 92 W/m² | - |
| 1787837334 | 21.67° C | 81% | 1018.9 hPa | 0 mm | - | 96 W/m² | - |
| 1787837029 | 21.11° C | 83% | 1019.2 hPa | 0 mm | - | 82 W/m² | - |
| 1787836729 | 21.11° C | 84% | 1019.1 hPa | 0 mm | - | 80 W/m² | - |
| 1787836424 | 20.56° C | 85% | 1019.1 hPa | 0 mm | - | 79 W/m² | - |
| 1787836119 | 20.56° C | 86% | 1019.1 hPa | 0 mm | - | 77 W/m² | - |
| 1787835815 | 20° C | 86% | 1019 hPa | 0 mm | - | 56 W/m² | - |
| 1787835514 | 20° C | 86% | 1019 hPa | 0 mm | - | 46 W/m² | - |
| 1787835216 | 20° C | 86% | 1019.1 hPa | 0 mm | - | 75 W/m² | - |
| 1787834910 | 20° C | 86% | 1019 hPa | 0 mm | - | 62 W/m² | - |
| 1787834609 | 20° C | 87% | 1019.1 hPa | 0 mm | - | 53 W/m² | - |
| 1787834304 | 19.44° C | 87% | 1019.3 hPa | 0 mm | - | 88 W/m² | - |
| 1787834000 | 19.44° C | 88% | 1019 hPa | 0 mm | - | 78 W/m² | - |
| 1787833695 | 19.44° C | 88% | 1019.2 hPa | 0 mm | - | 66 W/m² | - |
* Rain latest hour (hover to see other rain measurements)
** Current wind speed in m/s (hover to see current wind gust speed)